{"data":{"norad_id":52475,"epoch":"2026-05-25T02:27:26.987616Z","epoch_age_seconds":69425,"freshness":"FRESH","line1":"1 52475U 22049AA  26145.10239569  .00000796  00000+0  68085-4 0  9995","line2":"2 52475  53.2141  76.3121 0001628  68.4314 291.6851 15.08835973223787","mean_motion":15.08835973,"eccentricity":0.0001628,"inclination_deg":53.2141,"raan_deg":76.3121,"arg_perigee_deg":68.4314,"mean_anomaly_deg":291.6851,"bstar":6.8085e-5,"rev_number":22378,"period_min":95.437809395336,"perigee_km":538.62946498823,"apogee_km":540.88193085067,"semimajor_km":6917.8926979195,"source":"CELESTRAK","updated_at":"2026-05-25T13:38:17.154291Z"}}